Wetbulb
56.71 56.58 55.36 54.18 54.21 54.45 54.06 54.12 53.65 54.06 55.42 56.34 56.94 56.38 56.74 57.00 56.52 56.43 55.22 54.30 53.91 53.37
50.52 50.58 50.26 50.51 50.73 50.27 50.37 49.46 50.03 50.97 51.16 52.15 52.71 53.38 53.79 54.84 53.93 53.74 54.12 54.09 53.75 53.14
47.10 47.34 47.52 47.07 46.10 46.30 46.74 46.43 46.73 46.99 47.56 48.22 49.06 49.87 50.49 51.14 52.20 52.25 52.33 51.57 51.48 51.57
44.74 45.00 44.91 44.26 43.99 43.71 44.30 43.89 43.70 43.75 44.20 44.82 45.28 46.12 46.45 47.09 47.77 47.68 48.23 49.31 49.02 48.54
43.42 43.33 42.58 41.94 41.88 42.25 41.65 42.73 42.29 42.26 42.49 42.42 42.52 43.05 43.06 43.13 44.20 44.21 44.74 45.95 46.14 45.55
41.12 41.11 40.64 40.57 40.73 40.93 40.78 41.23 41.34 41.07 40.36 40.19 40.69 40.39 41.11 40.79 40.75 41.49 42.25 42.76 42.71 42.32
39.11 39.13 39.08 39.21 38.97 38.74 38.90 38.91 38.67 38.70 38.51 38.60 38.36 38.83 38.37 37.75 38.51 38.92 39.09 39.61 39.78 39.65
38.58 37.81 37.52 36.91 36.68 36.58 36.46 36.59 36.61 35.84 36.34 36.48 36.80 36.28 35.80 35.87 36.45 36.70 36.58 36.97 36.83 37.60
35.87 35.12 35.38 34.76 34.20 34.18 34.48 35.00 34.74 34.28 34.58 34.36 34.67 36.71 36.86 35.79 34.97 35.01 35.00 35.12 35.71 36.20
33.48 33.51 33.50 32.97 32.85 32.87 32.99 33.39 32.86 33.24 33.73 33.47 34.11 35.77 35.82 35.48 33.81 33.75 34.59 34.95 34.89 34.54
32.23 31.68 31.53 31.20 31.06 31.80 32.05 31.38 31.50 31.98 32.22 32.42 32.79 34.72 34.79 34.49 33.20 33.33 33.48 33.62 33.53 33.23
31.16 29.90 29.89 28.51 29.96 30.42 30.46 30.50 30.82 30.74 31.02 30.61 31.24 33.46 33.93 33.21 31.89 31.60 31.84 32.36 32.74 32.66
29.87 28.51 28.44 29.84 29.63 31.08 31.17 30.56 31.16 31.10 31.89 30.89 30.18 32.42 33.16 32.58 31.32 30.13 30.76 31.56 31.75 32.42
28.04 26.69 27.94 28.92 30.26 30.21 30.41 30.36 30.67 30.77 32.10 31.41 30.72 30.79 32.35 33.00 30.85 29.80 29.56 30.43 31.36 32.44
MSLP
1020.75 1021.01 1021.33 1021.54 1021.59 1021.57 1021.73 1021.84 1021.93 1021.82 1021.54 1021.36 1021.31 1021.43 1021.39 1021.39 1021.28 1021.20 1021.07 1020.92 1020.95 1020.83
1021.57 1021.80 1022.05 1022.12 1022.28 1022.39 1022.31 1022.34 1022.26 1022.17 1022.02 1021.79 1021.57 1021.35 1021.15 1021.05 1021.01 1021.04 1020.91 1020.78 1020.63 1020.37
1022.43 1022.55 1022.87 1023.03 1023.05 1023.06 1023.06 1023.02 1022.81 1022.74 1022.59 1022.43 1022.18 1021.82 1021.52 1021.35 1021.19 1020.95 1020.72 1020.49 1020.28 1020.15
1023.11 1023.14 1023.31 1023.49 1023.61 1023.78 1023.54 1023.50 1023.35 1023.24 1023.05 1022.86 1022.65 1022.28 1022.08 1021.79 1021.43 1021.11 1020.81 1020.52 1020.14 1019.82
1023.76 1023.92 1023.85 1024.06 1024.25 1024.23 1024.14 1024.00 1023.79 1023.56 1023.39 1023.23 1023.01 1022.72 1022.48 1022.17 1021.83 1021.39 1020.88 1020.37 1020.10 1019.71
1024.30 1024.40 1024.47 1024.62 1024.72 1024.53 1024.35 1024.06 1023.94 1023.81 1023.70 1023.56 1023.31 1023.07 1022.77 1022.59 1022.19 1021.73 1021.28 1020.81 1020.37 1019.91
1024.85 1024.95 1024.92 1024.88 1025.01 1024.87 1024.69 1024.53 1024.50 1024.27 1024.07 1023.80 1023.52 1023.24 1022.99 1022.67 1022.16 1021.74 1021.32 1020.96 1020.47 1019.90
1025.46 1025.62 1025.55 1025.56 1025.60 1025.49 1025.34 1025.01 1024.94 1024.67 1024.19 1023.91 1023.55 1023.31 1023.17 1022.75 1022.20 1021.62 1021.12 1020.68 1020.26 1019.75
1026.28 1026.32 1026.28 1026.21 1026.08 1025.75 1025.52 1025.21 1025.03 1024.67 1024.35 1023.94 1023.56 1023.18 1022.97 1022.67 1022.15 1021.70 1020.97 1020.32 1019.79 1019.53
1026.64 1026.50 1026.51 1026.43 1026.17 1025.97 1025.67 1025.26 1024.99 1024.57 1024.22 1023.86 1023.40 1022.95 1022.63 1022.42 1021.94 1021.26 1020.60 1020.09 1019.44 1018.78
1026.66 1026.75 1026.70 1026.63 1026.36 1026.06 1025.73 1025.40 1024.96 1024.49 1024.19 1023.77 1023.28 1022.84 1022.39 1022.00 1021.49 1020.79 1020.29 1019.89 1019.41 1018.72
1026.91 1026.92 1026.83 1026.70 1026.34 1026.09 1025.77 1025.34 1024.86 1024.51 1024.03 1023.66 1023.08 1022.69 1022.24 1021.70 1021.13 1020.44 1019.83 1019.48 1019.07 1018.55
1027.04 1026.98 1026.83 1026.58 1026.25 1025.79 1025.45 1024.90 1024.53 1023.94 1023.64 1023.31 1022.75 1022.30 1021.80 1021.32 1021.00 1020.24 1019.60 1018.96 1018.39 1018.00
1027.07 1026.93 1026.67 1026.30 1026.01 1025.61 1025.13 1024.58 1024.08 1023.40 1022.88 1022.66 1022.41 1021.88 1021.52 1021.26 1020.80 1020.28 1019.41 1018.56 1017.81 1017.48
Wind_Speed
7 4 5 6 5 5 5 6 9 8 8 8 7 8 6 6 6 8 8 11 10 9
9 9 7 8 7 6 7 6 7 7 8 8 8 8 9 6 9 7 7 9 9 10
9 10 9 8 9 8 8 9 8 8 8 9 9 9 9 7 8 9 8 7 10 10
8 8 8 7 7 7 7 8 9 9 9 8 9 9 8 9 9 10 10 10 11 14
8 8 8 8 7 7 7 6 6 6 7 8 8 9 8 9 9 10 11 11 11 13
8 7 8 7 7 7 7 8 8 7 8 8 8 9 9 10 11 11 12 12 12 14
7 7 7 7 8 8 8 8 8 8 8 7 8 7 7 9 10 10 10 11 12 13
7 8 8 7 7 7 6 6 6 7 7 7 7 5 9 10 10 11 12 11 13 12
5 5 5 5 5 6 6 6 6 6 7 8 6 12 14 14 11 12 12 12 14 12
4 4 5 5 6 6 7 7 7 8 8 9 9 15 18 17 10 11 11 12 13 13
4 5 6 6 6 6 7 8 8 9 9 10 9 17 18 18 11 11 12 13 14 15
4 5 5 5 6 6 7 8 8 8 10 12 11 17 18 16 10 11 12 10 10 12
4 3 5 6 7 6 7 8 7 9 8 12 12 16 17 15 8 12 9 10 10 13
3 5 5 7 7 8 8 11 11 11 9 11 10 11 18 18 10 9 11 10 8 7
Wind_Direction
83 74 62 45 27 29 12 8 358 344 335 325 314 304 298 293 283 269 249 246 243 247
67 63 60 51 40 26 25 8 355 352 342 336 329 327 319 299 291 287 283 273 265 259
62 58 52 46 41 32 23 14 8 2 355 345 337 336 330 318 310 306 296 291 288 285
65 65 63 54 43 26 21 14 10 1 354 350 343 343 334 323 313 308 303 298 294 293
63 57 55 46 31 21 15 8 2 354 348 343 339 337 332 324 319 312 304 300 298 293
57 52 48 36 21 13 6 4 0 353 348 340 337 333 332 329 320 316 313 312 308 302
49 37 31 23 11 5 357 353 349 346 336 331 327 322 332 321 314 309 306 303 298 299
25 19 12 6 356 349 342 339 332 325 326 325 321 326 323 318 312 305 304 299 300 296
7 355 355 341 330 324 320 321 323 318 315 318 312 311 316 315 309 304 298 299 301 301
354 348 346 331 330 326 326 324 320 316 317 312 309 312 315 314 307 301 294 295 300 302
359 349 339 335 327 328 331 328 320 316 314 308 305 310 312 312 302 296 298 301 304 303
355 334 328 316 317 314 311 307 305 302 311 309 302 309 313 319 312 304 302 296 287 297
334 303 304 302 303 303 291 290 290 291 296 299 297 307 315 323 312 307 304 304 302 295
321 310 299 302 299 297 297 298 298 295 296 303 303 308 317 317 313 306 306 305 309 317